Voltar ao catálogo

COSMOS 739

AtivoMilitarLEO
NORAD 7828·PAYLOAD·🇷🇺 Russia

Lançado May 28, 1975 de Plesetsk Cosmodrome

Loading…

Próximas Passagens (próximas 24 horas)

TLE

AtualizadoSource: Space-Track

Época: Sep 14, 2026, 04:42 UTC

1 07828U 75045H   26257.19628318  .00000004  00000-0  12696-3 0  9997
2 07828  74.0219 352.1652 0031234 198.8381 180.3504 12.54208427348747

Acompanhe COSMOS 739 em tempo real com AllMySat

Download on the App Store